Time,TemperatureF,DewpointF,PressureIn,WindDirection,WindDirectionDegrees,WindSpeedMPH,WindSpeedGustMPH,Humidity,HourlyPrecipIn,Conditions,Clouds,dailyrainin,SoftwareType,DateUTC
2013-04-25 00:10:00,48.5,43.0,30.00,WNW,283,13.0,17.0,81,0.00,,,0.00,VWS V12.07,2013-04-25 04:10:00,
2013-04-25 00:28:00,48.0,42.8,30.00,NW,305,7.0,19.0,82,0.00,,,0.00,VWS V12.07,2013-04-25 04:28:00,
2013-04-25 00:40:00,47.3,41.8,30.00,West,267,9.0,16.0,81,0.00,,,0.00,VWS V12.07,2013-04-25 04:40:00,
2013-04-25 00:58:00,46.7,41.5,30.00,West,272,7.0,17.0,82,0.00,,,0.00,VWS V12.07,2013-04-25 04:58:00,
2013-04-25 01:10:00,45.4,40.9,30.01,NW,306,5.0,16.0,84,0.00,,,0.00,VWS V12.07,2013-04-25 05:10:00,
2013-04-25 01:28:00,44.6,40.1,30.02,WNW,298,12.0,19.0,84,0.00,,,0.00,VWS V12.07,2013-04-25 05:28:00,
2013-04-25 01:40:00,44.3,39.8,30.02,NW,305,13.0,19.0,84,0.00,,,0.00,VWS V12.07,2013-04-25 05:40:00,
2013-04-25 01:58:00,44.3,39.8,30.01,WNW,288,7.0,18.0,84,0.00,,,0.00,VWS V12.07,2013-04-25 05:58:00,
2013-04-25 02:10:00,44.2,39.4,30.01,WNW,302,5.0,15.0,83,0.00,,,0.00,VWS V12.07,2013-04-25 06:10:00,
2013-04-25 02:28:00,43.6,38.8,30.01,NW,306,6.0,16.0,83,0.00,,,0.00,VWS V12.07,2013-04-25 06:28:00,
2013-04-25 02:40:00,42.6,38.1,30.01,NW,316,3.0,13.0,84,0.00,,,0.00,VWS V12.07,2013-04-25 06:40:00,
2013-04-25 02:58:00,42.2,37.7,30.01,NNW,338,6.0,15.0,84,0.00,,,0.00,VWS V12.07,2013-04-25 06:58:00,
2013-04-25 03:10:00,40.9,36.5,30.01,WNW,301,5.0,18.0,84,0.00,,,0.00,VWS V12.07,2013-04-25 07:10:00,
2013-04-25 03:28:00,40.8,35.7,30.03,WNW,300,5.0,16.0,82,0.00,,,0.00,VWS V12.07,2013-04-25 07:28:00,
2013-04-25 03:40:00,40.3,34.9,30.04,West,270,5.0,15.0,81,0.00,,,0.00,VWS V12.07,2013-04-25 07:40:00,
2013-04-25 03:58:00,40.1,34.4,30.04,NW,305,7.0,13.0,80,0.00,,,0.00,VWS V12.07,2013-04-25 07:58:00,
2013-04-25 04:10:00,39.1,33.8,30.04,WNW,293,6.0,22.0,81,0.00,,,0.00,VWS V12.07,2013-04-25 08:10:00,
2013-04-25 04:28:00,38.5,33.5,30.05,WNW,289,5.0,16.0,82,0.00,,,0.00,VWS V12.07,2013-04-25 08:28:00,
2013-04-25 04:40:00,38.0,32.7,30.06,North,350,6.0,18.0,81,0.00,,,0.00,VWS V12.07,2013-04-25 08:40:00,
2013-04-25 04:58:00,37.8,32.5,30.06,WNW,292,7.0,13.0,81,0.00,,,0.00,VWS V12.07,2013-04-25 08:58:00,
2013-04-25 05:10:00,37.2,31.9,30.06,NW,305,0.0,11.0,81,0.00,,,0.00,VWS V12.07,2013-04-25 09:10:00,
2013-04-25 05:28:00,36.9,31.6,30.09,WNW,291,2.0,7.0,81,0.00,,,0.00,VWS V12.07,2013-04-25 09:28:00,
2013-04-25 05:40:00,36.3,31.0,30.09,North,5,7.0,7.0,81,0.00,,,0.00,VWS V12.07,2013-04-25 09:40:00,
2013-04-25 05:58:00,36.3,31.0,30.11,West,275,5.0,10.0,81,0.00,,,0.00,VWS V12.07,2013-04-25 09:58:00,
2013-04-25 06:10:00,36.0,30.4,30.12,West,269,0.0,6.0,80,0.00,,,0.00,VWS V12.07,2013-04-25 10:10:00,
2013-04-25 06:28:00,36.0,30.4,30.12,WNW,291,7.0,10.0,80,0.00,,,0.00,VWS V12.07,2013-04-25 10:28:00,
2013-04-25 06:40:00,35.5,30.3,30.12,WNW,294,2.0,6.0,81,0.00,,,0.00,VWS V12.07,2013-04-25 10:40:00,
2013-04-25 06:58:00,34.9,30.0,30.13,WNW,294,2.0,4.0,82,0.00,,,0.00,VWS V12.07,2013-04-25 10:58:00,
2013-04-25 07:10:00,34.3,29.4,30.13,NW,313,0.0,4.0,82,0.00,,,0.00,VWS V12.07,2013-04-25 11:10:00,
2013-04-25 07:28:00,34.0,29.1,30.14,NW,313,2.0,3.0,82,0.00,,,0.00,VWS V12.07,2013-04-25 11:28:00,
2013-04-25 07:40:00,35.3,30.7,30.16,NW,313,0.0,1.0,83,0.00,,,0.00,VWS V12.07,2013-04-25 11:40:00,
2013-04-25 07:58:00,36.5,30.9,30.15,NW,313,0.0,3.0,80,0.00,,,0.00,VWS V12.07,2013-04-25 11:58:00,
2013-04-25 08:10:00,37.0,30.5,30.15,NNE,13,2.0,4.0,77,0.00,,,0.00,VWS V12.07,2013-04-25 12:10:00,
2013-04-25 08:28:00,37.6,30.4,30.17,NNE,13,1.0,5.0,75,0.00,,,0.00,VWS V12.07,2013-04-25 12:28:00,
2013-04-25 08:40:00,39.1,31.2,30.17,NNE,24,4.0,6.0,73,0.00,,,0.00,VWS V12.07,2013-04-25 12:40:00,
2013-04-25 08:58:00,39.1,31.5,30.17,NE,34,4.0,9.0,74,0.00,,,0.00,VWS V12.07,2013-04-25 12:58:00,
2013-04-25 09:10:00,40.1,30.4,30.17,NNE,29,3.0,12.0,68,0.00,,,0.00,VWS V12.07,2013-04-25 13:10:00,
2013-04-25 09:28:00,41.3,30.8,30.16,NE,44,7.0,7.0,66,0.00,,,0.00,VWS V12.07,2013-04-25 13:28:00,
2013-04-25 09:40:00,43.3,28.2,30.17,NE,44,2.0,9.0,55,0.00,,,0.00,VWS V12.07,2013-04-25 13:40:00,
2013-04-25 09:58:00,44.8,28.3,30.15,NE,49,5.0,10.0,52,0.00,,,0.00,VWS V12.07,2013-04-25 13:58:00,
2013-04-25 10:10:00,46.8,26.0,30.15,NE,44,3.0,6.0,44,0.00,,,0.00,VWS V12.07,2013-04-25 14:10:00,
2013-04-25 10:28:00,48.3,28.5,30.16,ESE,109,2.0,5.0,46,0.00,,,0.00,VWS V12.07,2013-04-25 14:28:00,
2013-04-25 10:40:00,50.1,24.9,30.15,NE,40,1.0,4.0,37,0.00,,,0.00,VWS V12.07,2013-04-25 14:40:00,
2013-04-25 10:58:00,51.6,24.2,30.15,NE,40,1.0,3.0,34,0.00,,,0.00,VWS V12.07,2013-04-25 14:58:00,
2013-04-25 11:10:00,51.4,27.9,30.16,NNE,30,10.0,13.0,40,0.00,,,0.00,VWS V12.07,2013-04-25 15:10:00,
2013-04-25 11:28:00,51.0,28.7,30.18,NE,36,6.0,12.0,42,0.00,,,0.00,VWS V12.07,2013-04-25 15:28:00,
2013-04-25 11:40:00,51.1,28.2,30.19,NNE,24,7.0,13.0,41,0.00,,,0.00,VWS V12.07,2013-04-25 15:40:00,
2013-04-25 11:58:00,51.9,29.5,30.19,North,5,4.0,10.0,42,0.00,,,0.00,VWS V12.07,2013-04-25 15:58:00,
2013-04-25 12:10:00,52.8,25.9,30.20,NNE,19,3.0,11.0,35,0.00,,,0.00,VWS V12.07,2013-04-25 16:10:00,
2013-04-25 12:28:00,53.5,21.2,30.20,NNE,22,10.0,11.0,28,0.00,,,0.00,VWS V12.07,2013-04-25 16:28:00,
2013-04-25 12:40:00,54.7,20.5,30.19,NNE,21,4.0,13.0,26,0.00,,,0.00,VWS V12.07,2013-04-25 16:40:00,
2013-04-25 12:58:00,54.8,15.6,30.20,NE,42,0.0,9.0,21,0.00,,,0.00,VWS V12.07,2013-04-25 16:58:00,
2013-04-25 13:10:00,55.3,21.0,30.19,East,91,6.0,10.0,26,0.00,,,0.00,VWS V12.07,2013-04-25 17:10:00,
2013-04-25 13:28:00,55.7,21.4,30.20,NE,38,0.0,11.0,26,0.00,,,0.00,VWS V12.07,2013-04-25 17:28:00,
2013-04-25 13:40:00,56.2,23.5,30.19,NNW,348,4.0,13.0,28,0.00,,,0.00,VWS V12.07,2013-04-25 17:40:00,
2013-04-25 13:58:00,56.7,24.0,30.18,NNE,32,5.0,11.0,28,0.00,,,0.00,VWS V12.07,2013-04-25 17:58:00,
2013-04-25 14:10:00,56.7,24.0,30.18,NNW,340,7.0,15.0,28,0.00,,,0.00,VWS V12.07,2013-04-25 18:10:00,
2013-04-25 14:28:00,57.5,19.0,30.19,ENE,58,11.0,14.0,22,0.00,,,0.00,VWS V12.07,2013-04-25 18:28:00,
2013-04-25 14:40:00,59.3,23.5,30.19,WNW,288,4.0,12.0,25,0.00,,,0.00,VWS V12.07,2013-04-25 18:40:00,
2013-04-25 14:58:00,57.8,22.2,30.18,NNE,21,11.0,16.0,25,0.00,,,0.00,VWS V12.07,2013-04-25 18:58:00,
2013-04-25 15:10:00,58.3,20.7,30.19,West,277,4.0,12.0,23,0.00,,,0.00,VWS V12.07,2013-04-25 19:10:00,
2013-04-25 15:28:00,58.4,17.5,30.20,ENE,65,12.0,16.0,20,0.00,,,0.00,VWS V12.07,2013-04-25 19:28:00,
2013-04-25 15:40:00,58.9,16.7,30.19,West,261,11.0,17.0,19,0.00,,,0.00,VWS V12.07,2013-04-25 19:40:00,
2013-04-25 15:58:00,59.3,15.8,30.19,SW,225,3.0,14.0,18,0.00,,,0.00,VWS V12.07,2013-04-25 19:58:00,
2013-04-25 16:10:00,58.3,15.0,30.19,NNW,329,3.0,16.0,18,0.00,,,0.00,VWS V12.07,2013-04-25 20:10:00,
2013-04-25 16:28:00,59.5,14.7,30.20,WNW,286,8.0,13.0,17,0.00,,,0.00,VWS V12.07,2013-04-25 20:28:00,
2013-04-25 16:40:00,58.3,9.3,30.20,WNW,296,5.0,22.0,14,0.00,,,0.00,VWS V12.07,2013-04-25 20:40:00,
2013-04-25 16:58:00,59.2,10.1,30.19,West,263,3.0,15.0,14,0.00,,,0.00,VWS V12.07,2013-04-25 20:58:00,
2013-04-25 17:10:00,58.7,11.2,30.19,West,265,5.0,20.0,15,0.00,,,0.00,VWS V12.07,2013-04-25 21:10:00,
2013-04-25 17:28:00,58.6,12.6,30.20,WNW,302,6.0,19.0,16,0.00,,,0.00,VWS V12.07,2013-04-25 21:28:00,
2013-04-25 17:40:00,58.7,9.6,30.21,WSW,257,11.0,14.0,14,0.00,,,0.00,VWS V12.07,2013-04-25 21:40:00,
2013-04-25 17:58:00,58.9,15.5,30.21,WNW,301,3.0,19.0,18,0.00,,,0.00,VWS V12.07,2013-04-25 21:58:00,
2013-04-25 18:10:00,58.0,9.1,30.21,West,271,11.0,20.0,14,0.00,,,0.00,VWS V12.07,2013-04-25 22:10:00,
2013-04-25 18:28:00,57.6,7.1,30.22,NW,305,5.0,15.0,13,0.00,,,0.00,VWS V12.07,2013-04-25 22:28:00,
2013-04-25 18:40:00,57.0,8.3,30.22,NW,326,3.0,19.0,14,0.00,,,0.00,VWS V12.07,2013-04-25 22:40:00,
2013-04-25 18:58:00,56.6,9.5,30.24,NW,313,5.0,14.0,15,0.00,,,0.00,VWS V12.07,2013-04-25 22:58:00,
2013-04-25 19:10:00,55.6,11.5,30.24,WNW,284,3.0,14.0,17,0.00,,,0.00,VWS V12.07,2013-04-25 23:10:00,
2013-04-25 19:28:00,55.1,12.4,30.23,WNW,296,3.0,10.0,18,0.00,,,0.00,VWS V12.07,2013-04-25 23:28:00,
2013-04-25 19:40:00,53.5,14.6,30.25,WNW,294,4.0,13.0,21,0.00,,,0.00,VWS V12.07,2013-04-25 23:40:00,
2013-04-25 19:58:00,52.6,15.9,30.26,WNW,284,5.0,11.0,23,0.00,,,0.00,VWS V12.07,2013-04-25 23:58:00,
2013-04-25 20:10:00,50.8,18.9,30.26,NW,317,2.0,10.0,28,0.00,,,0.00,VWS V12.07,2013-04-26 00:10:00,
2013-04-25 20:28:00,50.2,18.4,30.26,NNW,348,2.0,10.0,28,0.00,,,0.00,VWS V12.07,2013-04-26 00:28:00,
2013-04-25 20:40:00,49.1,22.0,30.26,NNW,329,2.0,7.0,34,0.00,,,0.00,VWS V12.07,2013-04-26 00:40:00,
2013-04-25 20:58:00,48.3,23.9,30.28,NNE,31,0.0,5.0,38,0.00,,,0.00,VWS V12.07,2013-04-26 00:58:00,
2013-04-25 21:10:00,47.3,26.0,30.28,WNW,300,1.0,4.0,43,0.00,,,0.00,VWS V12.07,2013-04-26 01:10:00,
2013-04-25 21:28:00,47.1,26.3,30.26,NW,307,3.0,8.0,44,0.00,,,0.00,VWS V12.07,2013-04-26 01:28:00,
2013-04-25 21:40:00,47.0,27.3,30.27,WNW,290,10.0,10.0,46,0.00,,,0.00,VWS V12.07,2013-04-26 01:40:00,
2013-04-25 21:58:00,46.7,27.0,30.28,WNW,290,2.0,10.0,46,0.00,,,0.00,VWS V12.07,2013-04-26 01:58:00,
2013-04-25 22:10:00,44.9,28.4,30.28,NW,319,1.0,4.0,52,0.00,,,0.00,VWS V12.07,2013-04-26 02:10:00,
2013-04-25 22:28:00,44.1,27.1,30.28,NW,319,1.0,4.0,51,0.00,,,0.00,VWS V12.07,2013-04-26 02:28:00,
2013-04-25 22:40:00,44.5,29.4,30.29,WNW,294,0.0,6.0,55,0.00,,,0.00,VWS V12.07,2013-04-26 02:40:00,
2013-04-25 22:58:00,42.6,28.5,30.28,WNW,294,0.0,3.0,57,0.00,,,0.00,VWS V12.07,2013-04-26 02:58:00,
2013-04-25 23:10:00,40.6,28.2,30.29,WNW,294,0.0,1.0,61,0.00,,,0.00,VWS V12.07,2013-04-26 03:10:00,
2013-04-25 23:28:00,39.8,27.9,30.30,WNW,294,0.0,2.0,62,0.00,,,0.00,VWS V12.07,2013-04-26 03:28:00,
2013-04-25 23:40:00,38.3,28.0,30.30,WNW,294,0.0,3.0,66,0.00,,,0.00,VWS V12.07,2013-04-26 03:40:00,
2013-04-25 23:59:00,37.8,27.8,30.31,WNW,294,2.0,2.0,67,0.00,,,0.00,VWS V12.07,2013-04-26 03:59:00,